OK5TVR-14 Weather Reports


time (UTC)temp
C
wind
direction
speed
KPH
gust
KPH
rain 1hr
cm
rain 24hr
cm
rain mn
cm
humidity
%
barometer
mb
20260903085151 20 135 0.0 0.0 0.00 0.00 0.00 57 1016.0
20260903083651 20 135 0.0 0.0 0.00 0.00 0.00 58 1015.9
20260903082151 20 135 0.0 0.0 0.00 0.00 0.00 59 1016.5
20260903080651 18 135 0.0 0.0 0.00 0.00 0.00 62 1016.4
20260903075151 18 135 0.0 0.0 0.00 0.00 0.00 64 1016.6
20260903073651 18 135 0.0 0.0 0.00 0.00 0.00 67 1016.8
20260903072151 17 135 0.0 0.0 0.00 0.00 0.00 69 1016.9
20260903070651 17 135 0.0 0.0 0.00 0.00 0.00 70 1016.9
20260903065151 17 135 0.0 0.0 0.00 0.00 0.00 71 1017.0
20260903063651 16 135 0.0 0.0 0.00 0.00 0.00 71 1017.0
20260903062151 16 135 0.0 0.0 0.00 0.00 0.00 72 1016.9
20260903060651 16 135 0.0 0.0 0.00 0.00 0.00 72 1017.0
20260903055151 16 135 0.0 0.0 0.00 0.00 0.00 73 1016.9
20260903053651 15 135 0.0 0.0 0.00 0.00 0.00 74 1016.9
20260903052151 15 135 0.0 0.0 0.00 0.00 0.00 74 1016.8
20260903050651 15 135 0.0 0.0 0.00 0.00 0.00 74 1016.8
20260903045151 15 135 0.0 0.0 0.00 0.00 0.00 74 1016.6
20260903043651 16 135 0.0 0.0 0.00 0.00 0.00 73 1016.6
20260903042151 16 135 0.0 0.0 0.00 0.00 0.00 74 1016.7
20260903040651 16 135 0.0 0.0 0.00 0.00 0.00 73 1016.6
20260903035151 16 135 0.0 0.0 0.00 0.00 0.00 73 1016.4
20260903033651 16 135 0.0 0.0 0.00 0.00 0.00 73 1016.3
20260903032151 16 135 0.0 0.0 0.00 0.00 0.00 73 1016.5
20260903030651 16 135 0.0 0.0 0.00 0.00 0.00 73 1016.4
20260903025151 16 135 0.0 0.0 0.00 0.00 0.00 73 1016.5
20260903023651 16 135 0.0 0.0 0.00 0.00 0.00 73 1016.4
20260903022151 16 135 0.0 0.0 0.00 0.00 0.00 72 1016.2
20260903020651 16 135 0.0 0.0 0.00 0.00 0.00 72 1016.3
20260903015151 16 135 0.0 0.0 0.00 0.00 0.00 72 1016.3
20260903013651 17 135 0.0 0.0 0.00 0.00 0.00 72 1016.2
20260903012151 17 135 0.0 0.0 0.00 0.00 0.00 72 1016.3
20260903010651 17 135 0.0 0.0 0.00 0.00 0.00 72 1016.2
20260903005151 17 135 0.0 0.0 0.00 0.00 0.00 71 1016.3
20260903003651 17 135 0.0 0.0 0.00 0.00 0.00 71 1016.4
20260903002151 17 135 0.0 0.0 0.00 0.00 0.00 71 1016.3
20260903000651 17 135 0.0 0.0 0.00 0.00 0.00 71 1016.3
20260902235151 17 135 0.0 0.0 0.00 0.00 0.00 70 1016.2
20260902233651 17 135 0.0 0.0 0.00 0.00 0.00 70 1016.3
20260902232151 17 135 0.0 0.0 0.00 0.00 0.00 70 1016.4
20260902230651 17 135 0.0 0.0 0.00 0.00 0.00 70 1016.3
20260902225151 17 135 0.0 0.0 0.00 0.00 0.00 69 1016.3
20260902223651 17 135 0.0 0.0 0.00 0.00 0.00 69 1016.3
20260902222151 17 135 0.0 0.0 0.00 0.00 0.00 69 1016.4
20260902220651 17 135 0.0 0.0 0.00 0.00 0.00 68 1016.3
20260902215151 17 135 0.0 0.0 0.00 0.00 0.00 68 1016.3
20260902213651 18 135 0.0 0.0 0.00 0.00 0.00 67 1016.2
20260902212151 18 135 0.0 0.0 0.00 0.00 0.00 67 1016.1
20260902210651 18 135 0.0 0.0 0.00 0.00 0.00 67 1016.0
20260902205151 18 135 0.0 0.0 0.00 0.00 0.00 66 1016.0
20260902203651 18 135 0.0 0.0 0.00 0.00 0.00 65 1015.9
20260902202151 18 135 0.0 0.0 0.00 0.00 0.00 65 1015.7
20260902200651 19 135 0.0 0.0 0.00 0.00 0.00 64 1015.5
20260902195151 20 135 0.0 0.0 0.00 0.00 0.00 64 1015.3
20260902193651 20 135 0.0 0.0 0.00 0.00 0.00 63 1015.4
20260902192151 20 135 0.0 0.0 0.00 0.00 0.00 62 1015.2
20260902190651 20 135 0.0 0.0 0.00 0.00 0.00 61 1015.2
20260902185151 21 135 0.0 0.0 0.00 0.00 0.00 59 1015.0
20260902183651 21 135 0.0 0.0 0.00 0.00 0.00 56 1015.5
20260902182151 22 135 0.0 0.0 0.00 0.00 0.00 55 1014.6
20260902180651 22 135 0.0 0.0 0.00 0.00 0.00 53 1014.3
20260902175151 22 135 0.0 0.0 0.00 0.00 0.00 52 1014.1
20260902173651 22 135 0.0 0.0 0.00 0.00 0.00 50 1014.1
20260902172151 23 135 0.0 0.0 0.00 0.00 0.00 47 1014.0
20260902170651 23 135 0.0 0.0 0.00 0.00 0.00 46 1013.9
20260902165151 23 135 0.0 0.0 0.00 0.00 0.00 45 1013.9
20260902163651 24 135 0.0 0.0 0.00 0.00 0.00 45 1014.0
20260902162151 24 135 0.0 0.0 0.00 0.00 0.00 45 1013.9
20260902160651 24 135 0.0 0.0 0.00 0.00 0.00 44 1013.9
20260902155151 25 135 0.0 0.0 0.00 0.00 0.00 43 1013.8
20260902153651 25 135 0.0 0.0 0.00 0.00 0.00 42 1013.7
20260902152151 25 135 0.0 0.0 0.00 0.00 0.00 41 1013.8
20260902150651 24 135 0.0 0.0 0.00 0.00 0.00 40 1014.0
20260902145151 25 135 0.0 0.0 0.00 0.00 0.00 40 1013.8
20260902143651 27 135 0.0 0.0 0.00 0.00 0.00 37 1013.7
20260902142151 28 135 0.0 0.0 0.00 0.00 0.00 36 1013.7
20260902140651 28 135 0.0 0.0 0.00 0.00 0.00 38 1013.7
20260902135151 28 135 0.0 0.0 0.00 0.00 0.00 37 1013.7
20260902133651 28 135 0.0 0.0 0.00 0.00 0.00 37 1013.9
20260902132151 27 135 0.0 0.0 0.00 0.00 0.00 39 1014.0
20260902130651 27 135 0.0 0.0 0.00 0.00 0.00 39 1014.1
20260902125151 26 135 0.0 0.0 0.00 0.00 0.00 41 1014.5
20260902123651 25 135 0.0 0.0 0.00 0.00 0.00 43 1014.8
20260902122151 24 135 0.0 0.0 0.00 0.00 0.00 48 1015.1
20260902120651 23 135 0.0 0.0 0.00 0.00 0.00 48 1015.2
20260902115151 23 135 0.0 0.0 0.00 0.00 0.00 49 1015.3
20260902113651 24 135 0.0 0.0 0.00 0.00 0.00 49 1015.2
20260902112151 25 135 0.0 0.0 0.00 0.00 0.00 48 1015.2
20260902110651 24 135 0.0 0.0 0.00 0.00 0.00 51 1015.5
20260902105151 24 135 0.0 0.0 0.00 0.00 0.00 51 1015.6
20260902103651 23 135 0.0 0.0 0.00 0.00 0.00 51 1015.9
20260902102151 22 135 0.0 0.0 0.00 0.00 0.00 55 1016.2
20260902100651 22 135 0.0 0.0 0.00 0.00 0.00 54 1016.3
20260902095151 22 135 0.0 0.0 0.00 0.00 0.00 55 1016.6
20260902093651 21 135 0.0 0.0 0.00 0.00 0.00 56 1016.5
20260902092151 21 135 0.0 0.0 0.00 0.00 0.00 58 1016.8
20260902090651 20 135 0.0 0.0 0.00 0.00 0.00 60 1017.0